TimeMDT,TemperatureF,Dew PointF,Humidity,Sea Level PressureIn,VisibilityMPH,Wind Direction,Wind SpeedMPH,Gust SpeedMPH,PrecipitationIn,Events,Conditions,WindDirDegrees,DateUTC
12:53 AM,43.0,19.9,40,29.84,10.0,ENE,3.5,-,N/A,,Clear,70,2013-10-01 06:53:00
1:53 AM,37.0,19.0,48,29.87,10.0,Calm,Calm,-,N/A,,Clear,0,2013-10-01 07:53:00
2:53 AM,36.0,16.0,44,29.87,10.0,ENE,3.5,-,N/A,,Clear,70,2013-10-01 08:53:00
3:53 AM,37.9,21.9,53,29.85,10.0,ENE,3.5,-,N/A,,Clear,70,2013-10-01 09:53:00
4:53 AM,32.0,17.1,54,29.89,10.0,ENE,4.6,-,N/A,,Clear,70,2013-10-01 10:53:00
5:53 AM,36.0,21.9,57,29.88,10.0,Calm,Calm,-,N/A,,Clear,0,2013-10-01 11:53:00
6:53 AM,34.0,21.9,61,29.95,10.0,Calm,Calm,-,N/A,,Clear,0,2013-10-01 12:53:00
7:53 AM,35.1,19.9,54,30.01,10.0,Calm,Calm,-,N/A,,Clear,0,2013-10-01 13:53:00
8:53 AM,48.9,25.0,39,29.94,10.0,NE,3.5,-,N/A,,Clear,50,2013-10-01 14:53:00
9:53 AM,55.0,25.0,31,29.98,10.0,Calm,Calm,-,N/A,,Clear,0,2013-10-01 15:53:00
10:53 AM,64.0,27.0,25,29.96,10.0,WSW,4.6,-,N/A,,Clear,250,2013-10-01 16:53:00
11:53 AM,68.0,25.0,20,29.89,10.0,WSW,6.9,-,N/A,,Clear,250,2013-10-01 17:53:00
12:53 PM,72.0,24.1,17,29.86,10.0,SSW,11.5,18.4,N/A,,Clear,210,2013-10-01 18:53:00
1:53 PM,75.0,24.1,15,29.86,10.0,SW,10.4,20.7,N/A,,Clear,230,2013-10-01 19:53:00
2:53 PM,73.9,21.9,14,29.85,10.0,SW,10.4,24.2,N/A,,Clear,220,2013-10-01 20:53:00
3:53 PM,75.9,19.9,12,29.81,10.0,Variable,5.8,19.6,N/A,,Clear,0,2013-10-01 21:53:00
4:53 PM,77.0,14.0,9,29.83,10.0,West,10.4,-,N/A,,Clear,280,2013-10-01 22:53:00
5:53 PM,75.0,14.0,10,29.82,10.0,West,12.7,-,N/A,,Clear,260,2013-10-01 23:53:00
6:53 PM,68.0,12.0,11,29.89,10.0,SW,6.9,-,N/A,,Clear,220,2013-10-02 00:53:00
7:53 PM,57.9,14.0,18,29.96,10.0,SW,4.6,-,N/A,,Clear,220,2013-10-02 01:53:00
8:53 PM,48.9,12.0,23,29.95,10.0,NE,3.5,-,N/A,,Clear,40,2013-10-02 02:53:00
9:53 PM,45.0,12.9,27,29.94,10.0,NE,4.6,-,N/A,,Clear,40,2013-10-02 03:53:00
10:53 PM,46.0,14.0,28,29.88,10.0,Calm,Calm,-,N/A,,Clear,0,2013-10-02 04:53:00
11:53 PM,42.1,12.9,31,29.89,10.0,ENE,4.6,-,N/A,,Clear,60,2013-10-02 05:53:00